Regional Weather Roundup
Issued by NWS Midland/Odessa, TX

Home | Current Version | Previous Version | Text Only | Print | Product List | Glossary On
Versions: 1 2 3 4 5 6 7 8 9 10 11 12 13 14 15 16 17 18 19 20 21 22 23 24 25 26 27 28 29 30 31 32 33 34 35 36 37 38 39 40 41 42 43 44 45 46 47 48 49 50
000
ASUS44 KMAF 260710
RWRMAF
MIDLAND AREA WEATHER ROUNDUP
NATIONAL WEATHER SERVICE MIDLAND TX
200 AM CDT SAT JUL 26 2014

...IN SOUTHWEST TEXAS AND SOUTHEAST NEW MEXICO...

CITY           SKY/WX    TMP DP  RH WIND       PRES   REMARKS
ALPINE         CLEAR     75  59  58 SW7       30.20S
ANDREWS        FAIR      81  58  46 SW7       30.05S
ARTESIA        CLEAR     81  48  32 S16       30.04S
BIG SPRING     CLEAR     84  59  42 S10       30.04S
CARLSBAD       CLEAR     82  49  31 S12       30.03R
DRYDEN           N/A     86  63  45 E12       30.01R
FORT STOCKTON  CLEAR     80  61  52 SE12      30.05S
GUAD PASS      CLEAR     73  48  41 NE20      30.20F
HOBBS          CLEAR     77  54  44 S12       30.08R
MARFA          CLEAR     70  57  64 CALM      30.21R
MIDLAND AIRPK  CLEAR     83  58  42 S8        30.04S
MIDLAND INTL   CLEAR     84  60  44 S13       30.03F
ODESSA         CLEAR     84  58  40 S14G22    30.05S
PECOS          CLEAR     81  60  47 SE10      30.00F
PRESIDIO       FAIR      85  57  37 E3        30.02R
SEMINOLE       CLEAR     78  55  45 S7        30.06S
SNYDER         CLEAR     81  61  50 S10       30.02S
WINK           CLEAR     83  58  42 SE12      30.01F
$$
...OTHER STATIONS IN TEXAS...

CITY           SKY/WX    TMP DP  RH WIND       PRES   REMARKS
ABILENE        CLEAR     81  64  56 S13       29.99F
AMARILLO       CLEAR     76  49  38 S13       30.02S
AUSTIN         CLEAR     79  72  79 S8        30.00S
BROWNSVILLE    CLEAR     80  77  90 SE10      30.01S
CORPUS CHRISTI PTCLDY    80  76  87 S13       29.98F
DALLAS FTW     CLEAR     83  69  62 S12       29.95F
DEL RIO        CLEAR     83  68  60 E8        29.97S
EL PASO        PTCLDY    84  43  23 SE5       30.04F
HOUSTON INT    PTCLDY    80  75  84 S3        30.01S
LUBBOCK        CLEAR     80  53  39 S12       30.03S
SAN ANGELO     CLEAR     82  64  54 S9        30.00S
SAN ANTONIO    PTCLDY    80  71  74 SE8       30.01F
WACO           CLEAR     82  71  69 S14       29.97F
WICHITA FALLS  NOT AVBL
$$
...OTHER LOCATIONS IN NEW MEXICO...

CITY           SKY/WX    TMP DP  RH WIND       PRES   REMARKS
ALAMAGORDO     CLEAR     84  39  20 S14G22    30.07S
ALBUQUERQUE    PTCLDY    82  41  23 S7        30.13S
CANNON AFB     CLEAR     71  49  45 S6        30.10R
CLOVIS         NOT AVBL
HOLLOMAN AFB   CLEAR     83  43  24 N12       30.05S
ROSWELL        CLEAR     77  43  29 S9        30.04S
RUIDOSO        CLEAR     72  45  37 W3        30.30F
SANTA FE       PTCLDY    71  47  42 NE8       30.21R
TRUTH OR CONSE CLEAR     81  42  25 W6        30.09F
TUCUMCARI      CLEAR     84  46  26 S20G26    30.01S
$$


USA.gov is the U.S. government's official web portal to all federal, state and local government web resources and services.